TimeEDT,TemperatureF,Dew PointF,Humidity,Sea Level PressureIn,VisibilityMPH,Wind Direction,Wind SpeedMPH,Gust SpeedMPH,PrecipitationIn,Events,Conditions,WindDirDegrees,DateUTC
12:51 AM,39.0,27.0,62,30.14,10.0,South,3.5,-,N/A,,Clear,190,2014-04-10 04:51:00
1:51 AM,37.9,27.0,65,30.13,10.0,SSE,6.9,-,N/A,,Clear,160,2014-04-10 05:51:00
2:51 AM,37.0,27.0,67,30.14,10.0,SSE,6.9,-,N/A,,Clear,160,2014-04-10 06:51:00
3:51 AM,37.0,27.0,67,30.14,10.0,South,6.9,-,N/A,,Clear,170,2014-04-10 07:51:00
4:51 AM,39.0,26.1,60,30.14,10.0,SSE,3.5,-,N/A,,Clear,150,2014-04-10 08:51:00
5:51 AM,35.1,25.0,67,30.17,10.0,South,5.8,-,N/A,,Clear,170,2014-04-10 09:51:00
6:51 AM,39.9,26.1,58,30.18,10.0,SSE,6.9,-,N/A,,Clear,160,2014-04-10 10:51:00
7:51 AM,44.1,28.0,53,30.19,10.0,South,5.8,-,N/A,,Clear,180,2014-04-10 11:51:00
8:51 AM,50.0,28.9,44,30.20,10.0,SSW,8.1,-,N/A,,Clear,200,2014-04-10 12:51:00
9:51 AM,53.1,30.9,43,30.21,10.0,SW,10.4,-,N/A,,Clear,230,2014-04-10 13:51:00
10:51 AM,57.0,30.9,37,30.19,10.0,SW,18.4,26.5,N/A,,Clear,220,2014-04-10 14:51:00
11:51 AM,59.0,28.9,32,30.18,10.0,WSW,12.7,26.5,N/A,,Clear,250,2014-04-10 15:51:00
12:51 PM,62.1,28.9,29,30.15,10.0,SW,11.5,21.9,N/A,,Clear,220,2014-04-10 16:51:00
1:51 PM,64.9,28.0,25,30.12,10.0,SSW,17.3,24.2,N/A,,Clear,200,2014-04-10 17:51:00
2:51 PM,66.9,27.0,22,30.10,10.0,WSW,11.5,23.0,N/A,,Clear,240,2014-04-10 18:51:00
3:51 PM,68.0,27.0,21,30.07,10.0,SW,16.1,23.0,N/A,,Clear,230,2014-04-10 19:51:00
4:51 PM,68.0,27.0,21,30.05,10.0,SW,13.8,23.0,N/A,,Clear,230,2014-04-10 20:51:00
5:51 PM,69.1,27.0,21,30.04,10.0,SW,11.5,18.4,N/A,,Clear,220,2014-04-10 21:51:00
6:51 PM,66.9,28.9,24,30.04,10.0,SSW,9.2,19.6,N/A,,Clear,210,2014-04-10 22:51:00
7:51 PM,64.0,28.9,27,30.04,10.0,SSW,11.5,-,N/A,,Clear,200,2014-04-10 23:51:00
8:51 PM,62.1,28.0,28,30.05,10.0,SSW,10.4,-,N/A,,Clear,210,2014-04-11 00:51:00
9:51 PM,60.1,27.0,28,30.07,10.0,SSW,11.5,-,N/A,,Clear,200,2014-04-11 01:51:00
10:51 PM,60.8,26.6,27,30.11,10.0,SSW,10.4,-,N/A,,Clear,200,2014-04-11 02:51:00
11:51 PM,59.0,28.9,32,30.06,10.0,SW,10.4,-,N/A,,Clear,220,2014-04-11 03:51:00